THOR ABLESTAR DEB, 543

Orbit data source: Space-Track

THOR ABLESTAR DEB, 543 is space debris in LEO originally from a launch on Thu, 29 Jun 1961 UTC launched from the Air Force Eastern Test Range (AFETR). Debris objects in space refer to the collection of defunct objects orbiting the Earth. Examples of debris include non-operational satellites, rocket bodies, and fragments generated from explosions, collisions, or faulty payload assembly.

Loading next visibility...
Identifier
543, 1961-015GC
Orbit
LEO
Country
Flag of USUS
Related business
Manufacturer
Unknown
Mission
Spacecraft
Bus & Motor
Unknown
Mass
Unknown
Launch date (UTC)
1961-06-29 (65 years ago)
Launch vehicle
Unknown
Launch site
Air Force Eastern Test Range (AFETR)
Object type
Payload
Rocket body
Debris
Shape & HBR
Unknown shape, 0.1 m
Radar Cross Section
Medium (>0.1 m² and <1 m²)

Expand to show TLE details & history
Last TLE update: 12 hours ago

TLE from 12 hours ago
0 THOR ABLESTAR DEB
1 00543U 61015GC  26255.96767527  .00000085  00000-0  17700-3 0  9995
2 00543  67.0298  99.6883 0065588 143.1993 334.8350 13.69264939248711
Epoch: 2026-09-12T23:13Z
TLE epoch observation values (Epoch: 2026-09-12T23:13:27.143Z)
Latitude
54.71337°
Longitude
-97.21466°
Altitude
966.666 km
Speed
7.396 km/s
True Right ascension
16h 12m 28s
True Declination
54° 33' 20"
Sunlit
Object was in daylight at epoch
Visualization orbit readout
Latitude
Unknown
Longitude
Unknown
Altitude
Unknown
Speed
Unknown
Apparent Right ascension
Unknown
Apparent Declination
Unknown
Sunlit
N/A
Visualization observer readout
Local Sidereal Time
03:49:17
Azimuth
Unknown
Elevation
Unknown
Doppler factor
Unknown
Orbital elements
Apogee altitude
1,048.991 km
Perigee altitude
952.2 km
Semi-major axis
7,378.732 km
Eccentricity
0.00656
Inclination
67.0298°
RAAN
99.6883°
Arg. of periapsis
143.1993°
True anomaly
334.51302°
Mean anomaly
334.835°
Eccentric anomaly
334.67425°
Mean motion
3.42429 °/min
Orbital period
105.13 mins
BSTAR
0.000177
Loading maneuver chart data...
Computing Atmospheric mass density...

Documentation

Showing up to 5 results
|